GAOFEN-11 01

Last updated on Mon Sep 21 2026 00:02:46 GMT+0000 (Coordinated Universal Time)

1 43585U 18063A 26263.63741711 .00015875 00000+0 21414-3 0 9992 2 43585 97.1189 330.3653 0003183 6.3005 353.8291 15.57876686455198
UTC large
Height (km)
Speed (km/s)
/
Latitude / Longitude
Inclination (degrees)
Orbital Period (minutes)
Azimuth
Elevation
Range (km)
Doppler Factor

Next 0 passes for location: London (51.5072 / 0.1276)

No passes found over London.
GAOFEN-11 01